This demonstration page uses our WeatherBlox Daily Observations layout. Learn more.

Hourly Observations for December 15, 2017

Temp ( °F °C ) Dew Point ( °F °C ) Humidity (%) Winds ( mph kmh ) Pressure ( in mb ) Visibility ( mi km ) Precip ( " mm )
12:15 am 00:15 Partly Cloudy 29 -1.6 27 -3 90 90 NW 5 7 30.27 1025 10 16.09344 0 0
12:35 am 00:35 Clear 28 -2.3 26 -3.3 93 93 WNW 5 7 30.3 1026 10 16.09344 0 0
12:55 am 00:55 Clear 26 -3.4 23 -5 89 89 W 5 7 30.3 1026 10 16.09344 0 0
1:15 am 01:15 Partly Cloudy 26 -3.3 24 -4.4 92 92 WNW 6 9 30.3 1026 10 16.09344 0 0
1:35 am 01:35 Clear 24 -4.6 22 -5.6 93 93 W 7 11 30.3 1026 10 16.09344 0 0
1:55 am 01:55 Clear 24 -4.2 24 -4.7 96 96 W 5 7 30.27 1025 10 16.09344 0 0
2:15 am 02:15 Clear 24 -4.5 23 -5 96 96 WSW 5 7 30.27 1025 10 16.09344 0 0
2:35 am 02:35 Clear 24 -4.6 22 -5.5 94 94 WSW 3 6 30.27 1025 10 16.09344 0 0
2:55 am 02:55 Clear 24 -4.4 22 -5.4 93 93 W 6 9 30.27 1025 10 16.09344 0 0
3:15 am 03:15 Clear 24 -4.6 22 -5.6 93 93 SW 6 9 30.27 1025 10 16.09344 0 0
3:35 am 03:35 Clear 23 -5.1 21 -6.1 93 93 W 6 9 30.27 1025 10 16.09344 0 0
3:55 am 03:55 Clear 24 -4.7 22 -5.5 94 94 W 8 13 30.27 1025 10 16.09344 0 0
4:15 am 04:15 Clear 22 -5.3 21 -6 95 95 W 6 9 30.27 1025 10 16.09344 0 0
4:35 am 04:35 Clear 21 -6.1 20 -6.7 96 96 W 7 11 30.3 1026 10 16.09344 0 0
4:55 am 04:55 Clear 22 -5.4 21 -6.1 95 95 WSW 7 11 30.3 1026 10 16.09344 0 0
5:15 am 05:15 Clear 22 -5.8 20 -6.8 93 93 WSW 7 11 30.27 1025 10 16.09344 0 0
5:35 am 05:35 Clear 21 -6.1 19 -7 93 93 SW 7 11 30.27 1025 10 16.09344 0 0
5:55 am 05:55 Clear 20 -6.5 19 -7.3 94 94 WSW 7 11 30.27 1025 10 16.09344 0 0
6:15 am 06:15 Clear 20 -6.7 19 -7.5 94 94 WSW 6 9 30.27 1025 10 16.09344 0 0
6:35 am 06:35 Clear 20 -6.5 19 -7.5 93 93 WSW 5 7 30.27 1025 10 16.09344 0 0
6:55 am 06:55 Clear 20 -6.6 18 -7.6 93 93 WSW 8 13 30.24 1024 10 16.09344 0 0
7:15 am 07:15 Clear 20 -6.7 18 -8 91 91 SW 8 13 30.24 1024 10 16.09344 0 0
7:35 am 07:35 Clear 21 -6 18 -7.8 87 87 WSW 8 13 30.24 1024 10 16.09344 0 0
7:55 am 07:55 Sunny 21 -6.1 18 -8 87 87 WSW 9 15 30.18 1022 10 16.09344 0 0
8:15 am 08:15 Sunny 22 -5.6 18 -7.8 85 85 SW 13 20 30.18 1022 10 16.09344 0 0
8:35 am 08:35 Sunny 21 -5.9 18 -8 85 85 SW 10 17 30.18 1022 10 16.09344 0 0
8:55 am 08:55 Sunny 22 -5.8 18 -7.6 87 87 SW 9 15 30.18 1022 10 16.09344 0 0
9:15 am 09:15 Sunny 23 -4.9 19 -7 85 85 WSW 12 19 30.15 1021 10 16.09344 0 0
9:35 am 09:35 Sunny 26 -3.5 21 -6.2 82 82 WSW 10 17 30.18 1022 10 16.09344 0 0
9:55 am 09:55 Sunny 28 -2.3 22 -5.7 78 78 W 13 20 30.15 1021 10 16.09344 0 0
10:15 am 10:15 Sunny 30 -1.3 22 -5.3 75 75 W 14 22 30.15 1021 10 16.09344 0 0
10:35 am 10:35 Sunny 32 0.2 23 -4.9 69 69 W 14 22 30.09 1019 10 16.09344 0 0
10:55 am 10:55 Sunny 35 1.5 24 -4.7 64 64 WSW 15 24 30.09 1019 10 16.09344 0 0
11:15 am 11:15 Sunny 36 2.2 24 -4.7 61 61 WSW 14 22 30.09 1019 10 16.09344 0 0
11:35 am 11:35 Sunny 37 2.8 23 -4.8 58 58 WSW 9 15 30.06 1018 10 16.09344 0 0
11:55 am 11:55 Sunny 39 3.7 24 -4.7 55 55 WSW 15 24 30.03 1017 10 16.09344 0 0
12:15 pm 12:15 Sunny 41 5.2 24 -4.6 50 50 WSW 14 22 30.03 1017 10 16.09344 0 0
12:35 pm 12:35 Sunny 43 6.2 23 -5 45 45 WSW 10 17 29.97 1015 10 16.09344 0 0
12:55 pm 12:55 Sunny 46 7.5 23 -5 41 41 WSW 10 17 29.97 1015 10 16.09344 0 0
1:15 pm 13:15 Sunny 47 8.5 23 -5.1 38 38 SW 10 17 29.91 1013 10 16.09344 0 0
1:35 pm 13:35 Sunny 49 9.5 22 -5.3 35 35 WSW 14 22 29.91 1013 10 16.09344 0 0
1:55 pm 13:55 Sunny 50 9.9 22 -5.5 34 34 WSW 13 20 29.88 1012 10 16.09344 0 0
2:15 pm 14:15 Sunny 50 10.2 22 -5.5 33 33 WSW 12 19 29.85 1011 10 16.09344 0 0
2:35 pm 14:35 Sunny 51 10.8 22 -5.6 31 31 WSW 13 20 29.88 1012 10 16.09344 0 0
2:55 pm 14:55 Sunny 52 11 22 -5.6 31 31 W 15 24 29.88 1012 10 16.09344 0 0
3:15 pm 15:15 Sunny 53 11.5 22 -5.7 30 30 W 14 22 29.83 1010 10 16.09344 0 0
3:35 pm 15:35 Sunny 53 11.5 21 -6 29 29 WSW 15 24 29.83 1010 10 16.09344 0 0
3:55 pm 15:55 Sunny 53 11.5 20 -6.5 28 28 SW 10 17 29.8 1009 10 16.09344 0 0
4:15 pm 16:15 Sunny 53 11.5 20 -6.4 28 28 SW 9 15 29.8 1009 10 16.09344 0 0
4:35 pm 16:35 Sunny 52 11.1 20 -6.5 29 29 SW 8 13 29.8 1009 10 16.09344 0 0
4:55 pm 16:55 Sunny 50 9.8 20 -6.7 31 31 SW 7 11 29.83 1010 10 16.09344 0 0
5:15 pm 17:15 Clear 47 8.4 19 -7.1 33 33 SW 8 13 29.83 1010 10 16.09344 0 0
5:35 pm 17:35 Clear 45 7.2 18 -7.7 34 34 SW 6 9 29.85 1011 10 16.09344 0 0
5:55 pm 17:55 Clear 46 7.6 18 -7.7 33 33 SSW 8 13 29.83 1010 10 16.09344 0 0
6:15 pm 18:15 Clear 44 6.6 17 -8.1 34 34 SSW 8 13 29.85 1011 10 16.09344 0 0
6:35 pm 18:35 Clear 42 5.3 17 -8.6 36 36 SSW 8 13 29.85 1011 10 16.09344 0 0
6:55 pm 18:55 Clear 44 6.4 17 -8.3 34 34 SW 8 13 29.83 1010 10 16.09344 0 0
7:15 pm 19:15 Clear 43 5.9 17 -8.2 36 36 SSW 9 15 29.83 1010 10 16.09344 0 0
7:35 pm 19:35 Clear 43 6.1 17 -8.1 36 36 SW 8 13 29.83 1010 10 16.09344 0 0
7:55 pm 19:55 Clear 43 6.1 17 -8.1 36 36 SW 12 19 29.83 1010 10 16.09344 0 0
8:15 pm 20:15 Clear 42 5.5 17 -8.2 37 37 SW 14 22 29.83 1010 10 16.09344 0 0
8:35 pm 20:35 Clear 42 5.3 17 -8.5 37 37 SSW 10 17 29.83 1010 10 16.09344 0 0
8:55 pm 20:55 Clear 41 4.9 17 -8.6 37 37 SSW 12 19 29.83 1010 10 16.09344 0 0
9:15 pm 21:15 Clear 40 4.3 16 -8.7 39 39 SW 13 20 29.83 1010 10 16.09344 0 0
9:35 pm 21:35 Clear 40 4.5 16 -9 37 37 SW 10 17 29.83 1010 10 16.09344 0 0
9:55 pm 21:55 Clear 40 4.3 16 -9.1 37 37 SW 14 22 29.83 1010 10 16.09344 0 0
10:15 pm 22:15 Clear 42 5.4 16 -9.1 35 35 SW 12 19 29.83 1010 10 16.09344 0 0
10:35 pm 22:35 Clear 40 4.6 15 -9.4 36 36 SW 13 20 29.83 1010 10 16.09344 0 0
10:55 pm 22:55 Clear 40 4.2 15 -9.4 37 37 SW 9 15 29.83 1010 10 16.09344 0 0
11:15 pm 23:15 Clear 41 4.8 15 -9.2 36 36 SW 10 17 29.8 1009 10 16.09344 0 0
11:35 pm 23:35 Clear 40 4.2 15 -9.3 37 37 SW 12 19 29.8 1009 10 16.09344 0 0
11:55 pm 23:55 Clear 40 4.6 15 -9.2 36 36 SW 12 19 29.8 1009 10 16.09344 0 0

Powered by AerisWeather